Other Public Products
Issued by NWS Grand Forks, ND

Home | Current Version | Previous Version | Graphics & Text | Print | Product List | Glossary On
Versions: 1 2 3 4 5 6 7 8 9 10 11 12 13 14 15 16 17 18 19 20 21 22 23 24 25 26 27 28 29 30 31 32 33 34 35 36 37 38 39 40 41 42 43 44 45 46 47 48 49 50
000
FPUS83 KFGF 042231
OPUFGF
PRAIRIE TO PINES WEATHER ROUNDUP
NATIONAL WEATHER SERVICE EASTERN NORTH DAKOTA/GRAND FORKS ND
500 PM CDT MON MAY 04 2015

 **SATELLITE DATA USED TO AUGMENT SKY COVER AT AUTOMATED STATIONS**
 *****  WEATHER ACROSS EASTERN NORTH DAKOTA  *****

CITY           SKY/WX    TMP DP  RH WIND       PRES   REMARKS
GRAND FORKS    MOSUNNY   69  25  19 CALM      30.16F
GRAND FORKS AF SUNNY     69  23  17 NW12      30.16F
GRAND CITY NWS   N/A     68 N/A N/A VRB1        N/A
BUXTON           N/A     71  27  19 CALM        N/A
DEVILS LAKE    SUNNY     66  25  20 S3        30.15F
FARGO          MOSUNNY   69  27  20 SW8       30.17F
WAHPETON ARPT  MOCLDY    68  23  18 N12       30.18S
$$

 *****  WEATHER ACROSS CENTRAL AND WESTERN NORTH DAKOTA  *****

CITY           SKY/WX    TMP DP  RH WIND       PRES   REMARKS
JAMESTOWN      MOSUNNY   67  24  19 SE10      30.16F
BISMARCK       SUNNY     69  25  19 SE13      30.15F
MINOT          SUNNY     71  24  17 SE13      30.09F
MINOT AFB      SUNNY     73  25  16 S9G18     30.08F
GARRISON         N/A     69  28  21 S16       30.11F
WILLISTON      MOSUNNY   72  32  23 S15G26    30.03F
DICKINSON      SUNNY     62  36  37 S26G35    30.10F
HETTINGER      CLOUDY    55  37  50 S18G25    30.16F
$$

 *****  OTHER OBSERVATIONS NORTHEAST NORTH DAKOTA  *****

CITY           SKY/WX    TMP DP  RH WIND       PRES   REMARKS
WALHALLA       FAIR      66  27  22 NW10      30.14S
LANGDON        FAIR      68  27  21 W13       30.15F
CAVALIER       MOCLDY    68  27  21 W8G21     30.14F
GRAFTON        FAIR      68  28  22 W9G16     30.16S
CANDO          FAIR      68  23  18 W5        30.15S
FORT TOTTEN    NOT AVBL
ROLLA          NOT AVBL
RUGBY          NOT AVBL
 ***** THE ABOVE OBSERVATIONS ARE NON NWS ARE NOT QUALITY
        CONTROLLED AND MAY MIS-REPORT RAIN FOR SNOW...
$$

 *****  OTHER OBSERVATIONS SOUTHEAST NORTH DAKOTA *****

CITY           SKY/WX    TMP DP  RH WIND       PRES   REMARKS
COOPERSTOWN    NOT AVBL
VALLEY CITY    FAIR      66  27  22 SW6       30.17F
OAKES            N/A     66  28  24 SE6       30.17S
GWINNER        CLEAR     70  30  23 NE7       30.18F
BUFFALO        NOT AVBL
WYNDMERE       NOT AVBL
 ***** THE ABOVE OBSERVATIONS ARE NON NWS ARE NOT QUALITY
       CONTROLLED AND MAY MIS-REPORT RAIN FOR SNOW...
$$

  *****  WEATHER ACROSS NORTHERN MINNESOTA  *****

CITY           SKY/WX    TMP DP  RH WIND       PRES   REMARKS
FLAG ISLAND    MOSUNNY   55  37  50 S8        30.16R
WARROAD        SUNNY     64  34  32 SW8       30.17F
ROSEAU         MOSUNNY   66  25  20 W9G17     30.16F
HALLOCK        SUNNY     66  16  14 NW6       30.14F
THF RVR FALLS  SUNNY     66  25  20 CALM      30.18F
HALSTAD          N/A     72  23  16 NE3         N/A
FOSSTON        SUNNY     70  21  16 NW3       30.19S
BAUDETTE       PTSUNNY   64  26  23 S5        30.17F
WASKISH        SUNNY     63  30  29 CALM      30.20S
CROOKSTON      SUNNY     66  25  20 CALM      30.18S
$$
  *****  WEATHER ACROSS CENTRAL AND WEST MINNESOTA  *****

CITY           SKY/WX    TMP DP  RH WIND       PRES   REMARKS
BEMIDJI        SUNNY     64  23  21 SE5       30.19S
PARK RAPIDS    MOSUNNY   66  27  23 CALM      30.19F
WADENA         MOSUNNY   63  32  31 N5        30.19F
DETROIT LAKES  MOSUNNY   64  30  27 SW8       30.20S
MOORHEAD       MOSUNNY   68  23  18 SW5       30.18F
FERGUS FALLS   PTSUNNY   66  30  26 N3        30.18F
ELBOW LAKE     FAIR      65  32  28 NE9       30.18S
MORRIS MN      MOSUNNY   70  28  21 SE5       30.16S
STAPLES        MOSUNNY   64  27  24 NE10      30.19S
WHEATON        MOSUNNY   66  28  24 NW8       30.18S
$$
  *****  WEATHER ELSEWHERE ACROSS MINNESOTA  *****

CITY           SKY/WX    TMP DP  RH WIND       PRES   REMARKS
DULUTH         PTSUNNY   66  19  16 N7        30.18S
INTRNTL FALLS  MOSUNNY   64  26  23 N6        30.19F
ELY            SUNNY     63  21  20 CALM      30.18S
CLOQUET        PTSUNNY   64   9  11 W5        30.19S
BRAINERD       PTSUNNY   64  22  20 NW12      30.20F
HIBBING        MOSUNNY   66  18  15 NW8       30.18F
ALEXANDRIA     PTSUNNY   65  30  27 N10       30.19F
SAINT CLOUD    PTSUNNY   68  30  24 N9        30.17F
MINNEAPOLIS    PTSUNNY   71  28  20 NE12      30.16F
$$

  *****  WEATHER ACROSS SOUTH DAKOTA  *****

CITY           SKY/WX    TMP DP  RH WIND       PRES   REMARKS
SIOUX FALLS    CLOUDY    70  29  21 E15       30.12F
BROOKINGS      PTSUNNY   70  27  19 NE9       30.15S
WATERTOWN      PTSUNNY   67  26  21 NE10      30.17S
HURON          CLOUDY    71  23  16 E7        30.13F
SISSETON         N/A     70  19  14 NE5       30.16F
ABERDEEN       CLOUDY    69  23  17 NE6       30.16F
MITCHELL       PTSUNNY   73  24  16 E10       30.12F
PIERRE         PTSUNNY   68  22  17 E13       30.15F
MOBRIDGE       CLOUDY    65  23  20 S6        30.15F
RAPID CITY     CLOUDY    56  35  45 S13       30.14F
$$

  *****  SOME WEATHER IN NEARBY STATES *****

CITY           SKY/WX    TMP DP  RH WIND       PRES   REMARKS
GLASGOW MT     SUNNY     75  40  28 S18G32    29.90F
GREAT FALLS MT MOSUNNY   75  25  15 S7        29.81F
CHEYENNE WY    CLOUDY    55  43  63 S15       30.10S
SCOTTSBLUFF NE CLOUDY    62  38  40 E13G22    30.09F
OMAHA NE       LGT RAIN  60  57  89 N12       30.07S FOG
DES MOINES IA  LGT RAIN  68  61  78 N9        30.09R
DAVENPORT IA   PTSUNNY   73  60  63 E14       30.08F
CHICAGO IL     CLOUDY    67  54  63 NE12      30.13R
EAU CLAIRE WI  PTSUNNY   71  28  20 N5        30.15S
LA CROSSE WI   PTSUNNY   74  38  27 VRB7      30.12F
$$

  *****  SOME NATIONAL WEATHER *****

CITY           SKY/WX    TMP DP  RH WIND       PRES   REMARKS
LA GUARDIA NY  MOSUNNY   78  46  32 S14       30.11F
RALEIGH NC     MOSUNNY   80  53  39 S10       30.25S
ATLANTA GA     FAIR      80  49  33 S7        30.24F
NEW ORLEANS LA CLOUDY    79  60  52 SE14G25   30.14S
OKLAHOMA CITY  PTSUNNY   80  59  48 SE17G26   30.00F
ALBUQUERQUE NM LGT RAIN  72  39  30 NE9       29.91F
SALT LAKE CITY LGT RAIN  67  47  48 S6        29.86S
LOS ANGELES CA MOSUNNY   62  52  69 W16       29.97F
BOISE ID       MOSUNNY   84  33  16 S10       29.78F
SEATTLE WA     MOSUNNY   61  41  47 SW20G26   29.96F
$$

*** WEATHER ACROSS MANITOBA...SASKATCHEWAN AND ONTARIO ***
                ***ONTARIO***

CITY           SKY/WX    TMP DP  RH WIND       PRES   REMARKS
GERALDTON      MOSUNNY   55  28  35 W9        30.11R
THUNDER BAY    MOSUNNY   66  25  20 NW15G21   30.14S
SIOUX LOOKOUT  MOSUNNY   59  32  36 NW9G17    30.15F
TORONTO        PTSUNNY   68  55  64 W15G24    30.05R
BIG TROUT LK   MOSUNNY   39  34  81 NW12G17   30.02S
PICKLE LAKE    LGT RAIN  52  27  37 W21G29    30.06F
DRYDEN         CLOUDY    55  32  41 W14G21    30.17R
KENORA         PTSUNNY   55  36  47 SW14G22   30.18S
$$
                *** MANITOBA***

CITY           SKY/WX    TMP DP  RH WIND       PRES   REMARKS
BRANDON        MOSUNNY   66  30  26 W10G21    30.13F
DAUPHIN        MOSUNNY   66  28  24 W15G21    30.10F
ISLAND LAKE    MOSUNNY   48  23  37 NW15G23   30.07F
PILOT MOUND      N/A     66  25  20 W8          N/A
THE PAS        PTSUNNY   50  25  37 N8        30.13F
THOMPSON       MOSUNNY   43  18  36 NW10G21   30.09S
WINNIPEG       MOSUNNY   64  27  24 N7        30.15F
LYNN LAKE      SUNNY     39  16  38 NW16G23   30.09F
CHURCHILL      FLURRIES  27  19  74 NW23      29.94R WCI  12
GILLAM         CLOUDY    34  21  60 W15G26    30.04R WCI  24
$$
                ***SASKATCHEWAN***

CITY           SKY/WX    TMP DP  RH WIND       PRES   REMARKS
ESTEVAN        MOSUNNY   70  30  23 S9G17     30.04F
KINDERSLEY     PTSUNNY   72  32  23 MISG      29.86F
LLOYDMINSTER   PTSUNNY   59  27  29 E16       29.96F
PRINCE ALBERT  CLOUDY    59  28  31 E12       30.06F
REGINA         MOSUNNY   68  28  22 S8G18     30.00F
YORKTON        SUNNY     64  27  24 W9        30.08F


USA.gov is the U.S. government's official web portal to all federal, state and local government web resources and services.